TimeCDT,TemperatureF,Dew PointF,Humidity,Sea Level PressureIn,VisibilityMPH,Wind Direction,Wind SpeedMPH,Gust SpeedMPH,PrecipitationIn,Events,Conditions,WindDirDegrees,DateUTC
12:15 AM,30.2,28.4,93,30.16,10.0,North,8.1,-,N/A,,Clear,350,2013-04-18 05:15:00
12:35 AM,30.2,28.4,93,30.16,10.0,NNW,6.9,-,N/A,,Partly Cloudy,340,2013-04-18 05:35:00
12:55 AM,30.2,28.4,93,30.16,10.0,NNW,6.9,-,N/A,,Scattered Clouds,340,2013-04-18 05:55:00
1:15 AM,30.2,28.4,93,30.15,10.0,NNW,6.9,-,N/A,,Scattered Clouds,340,2013-04-18 06:15:00
1:35 AM,30.2,26.6,86,30.15,10.0,NNW,8.1,-,N/A,,Clear,340,2013-04-18 06:35:00
1:55 AM,30.2,26.6,86,30.15,10.0,NNW,6.9,-,N/A,,Mostly Cloudy,340,2013-04-18 06:55:00
2:15 AM,30.2,26.6,86,30.13,5.0,NNW,8.1,-,N/A,Snow,Light Snow,330,2013-04-18 07:15:00
2:35 AM,30.2,26.6,86,30.11,2.5,North,12.7,-,N/A,Snow,Light Snow,350,2013-04-18 07:35:00
2:55 AM,28.4,26.6,93,30.10,4.0,North,10.4,-,N/A,Snow,Light Snow,350,2013-04-18 07:55:00
3:15 AM,28.4,26.6,93,30.07,7.0,North,11.5,-,N/A,Rain,Freezing Rain,350,2013-04-18 08:15:00
3:35 AM,28.4,26.6,93,30.08,10.0,North,12.7,-,N/A,,Partly Cloudy,350,2013-04-18 08:35:00
3:55 AM,28.4,26.6,93,30.08,8.0,North,11.5,-,N/A,,Partly Cloudy,350,2013-04-18 08:55:00
4:35 AM,28.4,26.6,93,30.07,10.0,NNW,10.4,-,N/A,,Clear,330,2013-04-18 09:35:00
4:55 AM,28.4,24.8,86,30.08,10.0,NNW,11.5,-,N/A,,Clear,340,2013-04-18 09:55:00
5:15 AM,28.4,24.8,86,30.07,10.0,NNW,13.8,-,N/A,,Clear,340,2013-04-18 10:15:00
5:35 AM,28.4,23.0,80,30.08,10.0,NNW,12.7,-,N/A,,Mostly Cloudy,340,2013-04-18 10:35:00
5:55 AM,28.4,23.0,80,30.07,10.0,NNW,13.8,-,N/A,,Overcast,340,2013-04-18 10:55:00
6:15 AM,28.4,23.0,80,30.06,10.0,NNW,15.0,-,N/A,,Overcast,340,2013-04-18 11:15:00
6:35 AM,28.4,23.0,80,30.07,6.0,NNW,15.0,-,N/A,Rain,Freezing Rain,340,2013-04-18 11:35:00
6:55 AM,28.4,24.8,86,30.07,4.0,NNW,15.0,20.7,N/A,Snow,Light Snow,340,2013-04-18 11:55:00
7:15 AM,28.4,24.8,86,30.06,7.0,NNW,15.0,-,N/A,Snow,Light Snow,340,2013-04-18 12:15:00
7:35 AM,28.4,26.6,93,30.05,9.0,North,15.0,-,N/A,Rain,Freezing Rain,350,2013-04-18 12:35:00
7:55 AM,28.4,26.6,93,30.05,10.0,North,12.7,-,N/A,,Overcast,350,2013-04-18 12:55:00
8:15 AM,28.4,28.4,100,30.05,10.0,North,16.1,-,N/A,,Overcast,350,2013-04-18 13:15:00
8:35 AM,30.2,28.4,93,30.04,10.0,North,16.1,19.6,N/A,,Overcast,350,2013-04-18 13:35:00
8:55 AM,30.2,28.4,93,30.04,10.0,North,15.0,-,N/A,,Overcast,350,2013-04-18 13:55:00
9:15 AM,32.0,28.4,87,30.04,10.0,North,16.1,19.6,N/A,,Mostly Cloudy,360,2013-04-18 14:15:00
9:35 AM,32.0,28.4,87,30.03,10.0,North,16.1,24.2,N/A,,Mostly Cloudy,360,2013-04-18 14:35:00
9:55 AM,32.0,28.4,87,30.03,10.0,North,17.3,-,N/A,,Overcast,360,2013-04-18 14:55:00
10:35 AM,32.0,28.4,87,30.02,10.0,North,16.1,21.9,N/A,,Scattered Clouds,350,2013-04-18 15:35:00
10:55 AM,32.0,28.4,87,30.02,10.0,North,17.3,21.9,N/A,,Clear,360,2013-04-18 15:55:00
11:15 AM,32.0,28.4,87,30.01,10.0,North,19.6,-,N/A,,Clear,350,2013-04-18 16:15:00
11:35 AM,32.0,28.4,87,30.02,10.0,North,15.0,24.2,N/A,,Clear,350,2013-04-18 16:35:00
11:55 AM,32.0,28.4,87,30.01,10.0,North,17.3,-,N/A,,Clear,350,2013-04-18 16:55:00
12:15 PM,32.0,28.4,87,29.99,10.0,NNW,23.0,27.6,N/A,,Clear,340,2013-04-18 17:15:00
12:35 PM,32.0,26.6,80,29.99,10.0,North,18.4,-,N/A,,Clear,350,2013-04-18 17:35:00
12:55 PM,33.8,24.8,70,29.98,10.0,North,19.6,28.8,N/A,,Clear,350,2013-04-18 17:55:00
1:15 PM,33.8,24.8,70,29.98,10.0,NNW,23.0,28.8,N/A,,Clear,340,2013-04-18 18:15:00
1:35 PM,33.8,24.8,70,29.97,10.0,North,17.3,28.8,N/A,,Clear,350,2013-04-18 18:35:00
1:55 PM,33.8,23.0,65,29.97,10.0,NNW,24.2,-,N/A,,Clear,340,2013-04-18 18:55:00
2:15 PM,35.6,23.0,60,29.97,10.0,NNW,24.2,29.9,N/A,,Clear,340,2013-04-18 19:15:00
2:35 PM,35.6,24.8,65,29.97,10.0,NNW,23.0,31.1,N/A,,Clear,340,2013-04-18 19:35:00
2:55 PM,35.6,24.8,65,29.97,10.0,NNW,23.0,28.8,N/A,,Clear,340,2013-04-18 19:55:00
3:15 PM,35.6,24.8,65,29.97,10.0,North,18.4,27.6,N/A,,Clear,350,2013-04-18 20:15:00
3:35 PM,35.6,26.6,70,29.97,10.0,North,21.9,25.3,N/A,,Clear,350,2013-04-18 20:35:00
3:55 PM,37.4,26.6,65,29.96,10.0,North,20.7,-,N/A,,Clear,350,2013-04-18 20:55:00
4:15 PM,35.6,24.8,65,29.95,10.0,NNW,19.6,28.8,N/A,,Clear,340,2013-04-18 21:15:00
4:35 PM,35.6,24.8,65,29.94,10.0,NNW,21.9,29.9,N/A,,Clear,340,2013-04-18 21:35:00
4:55 PM,35.6,24.8,65,29.93,10.0,NNW,23.0,31.1,N/A,,Clear,340,2013-04-18 21:55:00
5:15 PM,35.6,24.8,65,29.92,10.0,NNW,23.0,32.2,N/A,,Clear,340,2013-04-18 22:15:00
5:35 PM,35.6,24.8,65,29.92,10.0,NNW,23.0,31.1,N/A,,Clear,340,2013-04-18 22:35:00
5:55 PM,35.6,24.8,65,29.92,10.0,NNW,21.9,31.1,N/A,,Clear,340,2013-04-18 22:55:00
6:15 PM,35.6,24.8,65,29.92,10.0,NNW,26.5,33.4,N/A,,Clear,340,2013-04-18 23:15:00
6:35 PM,35.6,24.8,65,29.92,10.0,NNW,23.0,34.5,N/A,,Clear,340,2013-04-18 23:35:00
6:55 PM,35.6,24.8,65,29.92,10.0,NNW,21.9,28.8,N/A,,Clear,340,2013-04-18 23:55:00
7:15 PM,35.6,24.8,65,29.92,10.0,NNW,20.7,31.1,N/A,,Clear,340,2013-04-19 00:15:00
7:35 PM,33.8,23.0,65,29.92,10.0,North,20.7,27.6,N/A,,Clear,350,2013-04-19 00:35:00
7:55 PM,33.8,23.0,65,29.92,10.0,NNW,20.7,28.8,N/A,,Clear,340,2013-04-19 00:55:00
8:15 PM,32.0,23.0,69,29.92,10.0,NNW,21.9,28.8,N/A,,Clear,340,2013-04-19 01:15:00
8:35 PM,32.0,23.0,69,29.92,10.0,NNW,21.9,29.9,N/A,,Clear,340,2013-04-19 01:35:00
10:35 PM,32.0,21.2,64,29.91,10.0,NNW,20.7,28.8,N/A,,Clear,340,2013-04-19 03:35:00
10:55 PM,32.0,21.2,64,29.90,10.0,North,19.6,27.6,N/A,,Clear,350,2013-04-19 03:55:00
11:15 PM,32.0,21.2,64,29.89,10.0,North,18.4,25.3,N/A,,Clear,350,2013-04-19 04:15:00
11:35 PM,32.0,21.2,64,29.89,10.0,North,19.6,25.3,N/A,,Clear,350,2013-04-19 04:35:00
11:55 PM,32.0,23.0,69,29.89,10.0,North,16.1,-,N/A,,Clear,350,2013-04-19 04:55:00